Location: Cambridge (historical)
(38.6883°N, 119.0140°W)
Time: 13:18:22
(UTC+00:00)

Meteor 1-31 Rocket - Pass Details

Date: 29 October 2020
Orbit: 521 x 546 km, 97.6° (Epoch: 01 December)

Event Time Altitude Azimuth Distance (km) Brightness Sun altitude
Rises 13:40:51 0° 355° (N) 2,722 6.2 -8.3°
Reaches altitude 10° 13:43:27 10° 337° (NNW) 1,823 5.1 -7.8°
Maximum altitude 13:46:14 19° 292° (WNW) 1,345 4.2 -7.3°
Drops below altitude 10° 13:49:00 10° 247° (WSW) 1,809 5.0 -6.8°
Sets 13:51:35 0° 229° (SW) 2,693 6.0 -6.3°
